Regional Weather Roundup
Issued by NWS

Home | Current Version | Previous Version | Graphics & Text | Print | Product List | Glossary On
Versions: 1 2 3 4 5 6 7 8 9 10 11 12 13 14 15 16 17 18 19 20 21 22 23 24 25 26 27 28 29 30 31 32 33 34 35 36 37 38 39 40 41 42 43 44 45 46 47 48 49 50
897
ASUS43 KMKX 272121
RWRWI

WISCONSIN REGIONAL WEATHER ROUNDUP
NATIONAL WEATHER SERVICE MILWAUKEE/SULLIVAN WI
400 PM CDT WED JUL 27 2016

NOTE: "FAIR" INDICATES FEW OR NO CLOUDS BELOW 12,000 FEET WITH NO
SIGNIFICANT WEATHER AND/OR OBSTRUCTIONS TO VISIBILITY.

WIZ001-002-006>008-014>016-023>028-272200-
NORTHWEST WISCONSIN

CITY           SKY/WX    TMP DP  RH WIND       PRES   REMARKS
SUPERIOR ARPT  LGT RAIN  61  60  95 E13       30.02F
ASHLAND        LGT RAIN  64  61  90 NE10      30.04R
HAYWARD        RAIN      68  66  93 N12       30.01R FOG
SIREN          NOT AVBL
CUMBERLAND     TSTM      64  63  94 N6        29.98S
RICE LAKE      TSTM      66  62  85 SE6G17    30.01R VSB 1/4
CHETEK         LGT RAIN  73  70  91 N9        29.95R
LADYSMITH      CLOUDY    73  68  83 NE6       29.98F
EAU CLAIRE     CLOUDY    81  67  62 S10       29.91F HX  83
MENOMONIE      CLOUDY    80  69  69 S5        29.93S HX  83
NEW RICHMOND   HVY RAIN  67  65  93 NW12G25   30.00R
OSCEOLA        HVY RAIN  65  65 100 NE5       29.99S
$$

WIZ003>005-009-010-017-018-272200-
NORTH CENTRAL WISCONSIN

CITY           SKY/WX    TMP DP  RH WIND       PRES   REMARKS
MANITOWISH WTR LGT RAIN  71  69  95 CALM      30.02S
ARBOR VITAE    LGT RAIN  72  67  83 CALM      30.02F
WOODRUFF       LGT RAIN  72  67  83 CALM      30.02F
RHINELANDER    CLOUDY    71  66  84 CALM      30.03S
EAGLE RIVER    CLOUDY    70  64  80 CALM      30.02F
LAND O LAKES   LGT RAIN  70  66  87 CALM      30.03S
PHILLIPS       CLOUDY    68  67  94 NE3       29.99F
TOMAHAWK       CLOUDY    70  64  83 CALM      30.01F
MEDFORD        CLOUDY    74  71  89 E3        29.98F
MERRILL        PTSUNNY   74  69  85 CALM      30.00S
$$

WIZ029-030-035-036-043>047-272200-
CENTRAL WISCONSIN

CITY           SKY/WX    TMP DP  RH WIND       PRES   REMARKS
WAUSAU         CLOUDY    78  67  68 CALM      29.96F HX  80
MOSINEE        NOT AVBL
MARSHFIELD     CLOUDY    79  68  69 S8        29.96F HX  81
STEVENS POINT  SUNNY     78  65  64 SE7       29.97F HX  80
WAUPACA        CLOUDY    82  67  61 CALM      29.97F HX  84
WAUTOMA        CLOUDY    74  69  85 SE6       29.97F
WISC RAPIDS    CLOUDY    81  64  56 SE9       29.97F HX  82
CAMP DOUGLAS   PTSUNNY   81  72  74 SE8       29.95F HX  84
$$

WIZ011>013-019>022-031-037>040-048>050-272200-
NORTHEAST WISCONSIN

CITY           SKY/WX    TMP DP  RH WIND       PRES   REMARKS
ANTIGO         CLOUDY    73  67  83 CALM      30.01S
SHAWANO        MOSUNNY   79  70  74 NE5       29.97F HX  82
OCONTO         PTSUNNY   75  70  83 CALM      29.95S
STURGEON BAY   CLOUDY    76  65  68 N5        29.96F
GREEN BAY      MOSUNNY   79  70  74 S8        29.96F HX  82
MANITOWOC      PTSUNNY   79  66  64 S7        29.97F HX  81
APPLETON       PTSUNNY   77  64  65 VRB6      29.96F
CLINTONVILLE   MOSUNNY   79  64  61 CALM      29.96F HX  81
OSHKOSH        PTSUNNY   76  68  76 S7        29.97F
$$

WIZ032>034-041-042-053>061-272200-
SOUTHWEST WISCONSIN

CITY           SKY/WX    TMP DP  RH WIND       PRES   REMARKS
LA CROSSE      CLOUDY    83  68  60 SW9       29.92F HX  86
SPARTA         PTSUNNY   81  69  65 SW6       29.94F HX  84
VIROQUA        CLOUDY    83  66  57 S9        29.96F HX  85
BOSCOBEL       CLOUDY    86  66  51 S7        29.94F HX  88
PRAIRIE DU CHI CLOUDY    84  63  49 SW3       29.94F HX  85
PLATTEVILLE    MOSUNNY   81  66  60 S7        29.97F HX  83
$$

WIZ056-057-062-063-064-067-068-272200-
SOUTH CENTRAL WISCONSIN

CITY           SKY/WX    TMP DP  RH WIND       PRES   REMARKS
REEDSBURG      CLOUDY    78  70  74 NE9       29.96S HX  81
BARABOO/DELLS  CLOUDY    78  68  70 NE6       29.97F HX  80
LONE ROCK      CLOUDY    85  68  56 SW7       29.95F HX  88
MINERAL POINT  MOSUNNY   82  66  57 SW6       29.97F HX  85
MADISON        PTSUNNY   85  70  60 NE12      29.96F HX  89
MIDDLETON      MOSUNNY   87  64  45 SW5       29.97F HX  88
WATERTOWN      PTSUNNY   78  68  71 NE15G23   29.98R HX  80
MONROE         MOSUNNY   84  61  45 CALM      29.97F HX  84
JANESVILLE     NOT AVBL
$$

WIZ051-052-058>065-066-070>072-272200-
SOUTHEAST WISCONSIN

CITY           SKY/WX    TMP DP  RH WIND       PRES   REMARKS
MILWAUKEE      PTSUNNY   75  65  70 NE15G25   29.97R
WAUKESHA       PTSUNNY   79  63  57 NE13      29.99R HX  80
MILWAUKEE/TIMM LGT RAIN  75  64  69 MISG      29.99R
RACINE         PTSUNNY   85  65  51 SE7       29.97F HX  86
BURLINGTON     MOSUNNY   87  63  44 SW5       29.96F HX  88
KENOSHA        MOSUNNY   85  66  53 E9        29.96S HX  87
FOND DU LAC    LGT RAIN  75  70  84 SE14      29.99F
SHEBOYGAN      LGT RAIN  72  67  84 CALM      29.98F
WEST BEND      RAIN      68  64  88 NW7       30.01R
JUNEAU         CLOUDY    71  69  91 E9        29.99F
$$

LSZ147-162-272200-
LAKE SUPERIOR

STATION/POSITION TIME  TEMP    WIND        PRES    WAVE
                       AIR SEA DIR/SP/G            HT/PER
                 (UTC) (F)     (DEG/KT/KT) (MB)    (FT/S)
W MID LAKE BUOY  2050   61 60  120/  6/  8 1017.3R   2/ 4
DEVILS ISLAND    2100   61      70/ 20/ 23 1016.2F
PORT WING        2000   65      50/  9/ 19 1016.9R
SAXON HARBOR     2000   66      30/ 14/ 16 1015.9
$$

LMZ867-665-643>646-272200-
LAKE MICHIGAN

STATION/POSITION TIME  TEMP    WIND        PRES    WAVE
                       AIR SEA DIR/SP/G            HT/PER
                 (UTC) (F)     (DEG/KT/KT) (MB)    (FT/S)
CHAMBERS ISLAND  2000   79     310/  3/  4 1014.2F
S GREEN BAY BUOY 2100   74 75  180/  8/ 10   N/A
N MID LAKE BUOY  2050   71 71  320/  4/  4 1013.6R   0
NORTHPORT PIER   2000   74     310/  7/  9 1013.5F
SISTER BAY       2006   78     350/  7/  8   N/A
ALGOMA LAKESHORE 2028             CALM       N/A
KEWAUNEE LAKESHO 2000          180/  8/  9 1014.1F
SHEBOYGAN LAKESH 2100   69      CALM  /  2 1015.0F
PORT WASHINGTON  2000   71      30/  6/ 12 1016.3R
ATWATER BUOY     2100   63 61  330/  4/  6 1016.8S
MILWAUKEE LAKESH 2010   69      30/ 18/ 20   N/A
S MID LAKE BUOY  2050   78 77  140/  6/  6 1013.6F
KENOSHA   LAKESH 2100   80     130/  5/  5 1013.9F
$$

TC  - TEMPERATURE IN CELSIUS
VSB - VISIBILITY IN STATUTE MILES
WCI - WIND CHILL INDEX
HX  - HEAT INDEX





USA.gov is the U.S. government's official web portal to all federal, state and local government web resources and services.